contact:dominique.lefevre@mio.osupytheas.fr, maurice.libes@osupytheas.fr, didier.mallarino@osupytheas.fr
Project:EMSO http://www.emso-fr.org/EMSO-France
Depth: 2436.0 m
Title:EMSO Ligure Ouest : Data MII capteur AQUADOPP
Date,Latitude,Longitude,X_East,Y_North,Z_Up,Amplitude_X,Amplitude_Y,Amplitude_Z,Batterie,SoundSpeed,Heading,Pitch,Roll,Pressure,TIS,Speed,Direction
, degrees North, degrees East, m.s-1, m.s-1,m.s-1, 1, 1, 1, Volt, m.s-1, degree, degree, degree, dbar, degree_C, m.s-1, degree
2020-07-13T00:04:03,42.805,6.029,0.032,-0.034,-0.031,103.0,114.0,100.0,13.4,1505.2,327.8,-0.7,1.8,2470.486,13.3,0.046,136.7
2020-07-13T00:07:03,42.805,6.029,0.029,-0.011,-0.033,103.0,114.0,101.0,13.4,1505.3,325.0,-0.7,1.8,2470.413,13.31,0.031,110.8
2020-07-13T00:10:03,42.805,6.029,0.031,-0.013,-0.033,102.0,115.0,100.0,13.4,1505.3,327.1,-0.7,1.8,2470.414,13.31,0.033,112.7
2020-07-13T00:13:03,42.805,6.029,0.025,-0.014,0.0,102.0,113.0,101.0,13.4,1505.3,323.5,-0.7,1.8,2470.442,13.32,0.028,119.3
2020-07-13T00:16:03,42.805,6.029,0.032,0.014,-0.003,102.0,112.0,100.0,13.4,1505.3,325.9,-0.7,1.8,2470.439,13.32,0.034,66.4
2020-07-13T00:19:03,42.805,6.029,0.032,0.002,0.0,101.0,114.0,101.0,13.4,1505.3,327.3,-0.7,1.8,2470.486,13.32,0.032,86.4
2020-07-13T00:22:02,42.805,6.029,0.046,-0.012,0.01,102.0,116.0,99.0,13.4,1505.3,324.2,-0.7,1.8,2470.432,13.32,0.047,104.6
2020-07-13T00:25:03,42.805,6.029,0.036,0.003,0.008,101.0,115.0,101.0,13.3,1505.3,326.8,-0.7,1.8,2470.407,13.32,0.036,85.2
2020-07-13T00:28:03,42.805,6.029,0.033,-0.008,-0.028,101.0,113.0,100.0,13.4,1505.3,326.7,-0.7,1.8,2470.447,13.32,0.033,103.6
2020-07-13T00:31:03,42.805,6.029,0.045,-0.002,0.008,102.0,112.0,101.0,13.4,1505.3,323.7,-0.7,1.8,2470.444,13.32,0.045,92.5
2020-07-13T00:34:03,42.805,6.029,0.036,0.0,0.019,104.0,115.0,99.0,13.4,1505.3,324.1,-0.6,1.9,2470.438,13.32,0.036,90.0
2020-07-13T00:37:03,42.805,6.029,0.041,-0.018,-0.01,102.0,113.0,101.0,13.4,1505.3,324.8,-0.7,1.8,2470.441,13.32,0.044,113.7
2020-07-13T00:40:03,42.805,6.029,0.011,0.0,-0.005,102.0,112.0,101.0,13.4,1505.3,325.7,-0.7,1.8,2470.433,13.32,0.011,90.0
2020-07-13T00:43:03,42.805,6.029,0.05,-0.008,-0.011,103.0,110.0,100.0,13.3,1505.3,326.3,-0.7,1.8,2470.437,13.32,0.05,99.1
2020-07-13T00:46:03,42.805,6.029,0.009,-0.013,-0.023,102.0,114.0,101.0,13.4,1505.3,324.8,-0.7,1.8,2470.435,13.32,0.015,145.3
2020-07-13T00:49:03,42.805,6.029,0.004,-0.006,-0.056,102.0,113.0,101.0,13.4,1505.3,327.1,-0.7,1.8,2470.436,13.32,0.007,146.3
2020-07-13T00:52:03,42.805,6.029,0.021,0.014,0.006,102.0,112.0,99.0,13.4,1505.3,326.5,-0.7,1.8,2470.435,13.32,0.025,56.3
2020-07-13T00:55:03,42.805,6.029,0.031,0.004,-0.001,102.0,114.0,101.0,13.4,1505.3,325.1,-0.7,1.8,2470.415,13.32,0.031,82.7
2020-07-13T00:58:03,42.805,6.029,0.043,-0.003,-0.004,102.0,116.0,102.0,13.3,1505.3,325.7,-0.7,1.9,2470.414,13.32,0.043,94.0
2020-07-13T01:04:03,42.805,6.029,0.033,0.008,-0.004,104.0,116.0,101.0,13.4,1505.2,324.6,-0.8,1.8,2470.446,13.3,0.033,76.4
2020-07-13T01:07:03,42.805,6.029,0.051,-0.008,0.014,103.0,115.0,99.0,13.4,1505.3,326.7,-0.7,1.8,2470.484,13.31,0.051,98.9
2020-07-13T01:10:03,42.805,6.029,0.011,0.003,0.0,102.0,114.0,100.0,13.4,1505.3,326.0,-0.7,1.8,2470.459,13.31,0.011,74.7
2020-07-13T01:13:03,42.805,6.029,0.039,-0.001,0.004,102.0,114.0,100.0,13.4,1505.3,325.3,-0.7,1.8,2470.436,13.32,0.039,91.5
2020-07-13T01:16:03,42.805,6.029,0.019,0.002,-0.012,101.0,112.0,100.0,13.4,1505.3,327.9,-0.7,1.8,2470.445,13.32,0.019,84.0
2020-07-13T01:19:03,42.805,6.029,0.04,-0.002,0.002,103.0,111.0,100.0,13.4,1505.3,323.5,-0.7,1.8,2470.433,13.32,0.04,92.9
2020-07-13T01:22:03,42.805,6.029,0.019,0.004,-0.034,102.0,110.0,100.0,13.4,1505.3,324.0,-0.7,1.8,2470.447,13.32,0.019,78.1
2020-07-13T01:25:03,42.805,6.029,0.034,-0.005,0.0,103.0,114.0,99.0,13.4,1505.3,323.1,-0.7,1.8,2470.442,13.32,0.034,98.4
2020-07-13T01:28:03,42.805,6.029,0.045,-0.008,-0.026,102.0,113.0,101.0,13.4,1505.3,325.8,-0.7,1.8,2470.431,13.32,0.045,100.1
2020-07-13T01:31:03,42.805,6.029,0.045,0.004,-0.038,103.0,115.0,100.0,13.4,1505.3,327.6,-0.7,1.8,2470.433,13.32,0.045,84.9
2020-07-13T01:34:03,42.805,6.029,0.031,-0.027,-0.017,103.0,113.0,100.0,13.4,1505.3,327.5,-0.7,1.8,2470.42,13.32,0.041,131.1
2020-07-13T01:37:03,42.805,6.029,0.017,-0.003,-0.037,102.0,115.0,100.0,13.3,1505.3,324.7,-0.7,1.8,2470.467,13.32,0.017,100.0
2020-07-13T01:40:03,42.805,6.029,0.023,-0.008,-0.014,102.0,113.0,101.0,13.3,1505.3,326.7,-0.7,1.8,2470.461,13.32,0.024,109.2
2020-07-13T01:43:03,42.805,6.029,0.012,0.001,0.002,102.0,112.0,101.0,13.4,1505.3,324.3,-0.7,1.8,2470.423,13.32,0.012,85.2
2020-07-13T01:46:03,42.805,6.029,0.04,-0.028,-0.007,102.0,113.0,101.0,13.4,1505.3,323.0,-0.7,1.9,2470.435,13.32,0.048,125.0
2020-07-13T01:49:03,42.805,6.029,0.043,0.006,-0.009,102.0,114.0,100.0,13.3,1505.3,326.1,-0.7,1.8,2470.403,13.32,0.043,82.1
2020-07-13T01:52:03,42.805,6.029,0.034,-0.016,-0.01,103.0,114.0,101.0,13.4,1505.3,323.5,-0.7,1.8,2470.433,13.32,0.037,115.2
2020-07-13T01:55:03,42.805,6.029,0.025,-0.003,-0.026,104.0,114.0,100.0,13.4,1505.3,326.4,-0.7,1.9,2470.4,13.32,0.025,96.8
2020-07-13T01:58:03,42.805,6.029,-0.002,-0.003,-0.015,102.0,115.0,100.0,13.3,1505.3,325.7,-0.7,1.8,2470.419,13.32,0.003,213.7
2020-07-13T02:04:03,42.805,6.029,0.047,-0.007,-0.023,103.0,115.0,99.0,13.3,1505.2,327.7,-0.7,1.8,2470.412,13.3,0.047,98.5
2020-07-13T02:07:03,42.805,6.029,0.029,-0.016,-0.025,102.0,117.0,100.0,13.4,1505.3,324.5,-0.7,1.8,2470.473,13.31,0.033,118.9
2020-07-13T02:10:03,42.805,6.029,0.01,-0.009,0.006,102.0,116.0,101.0,13.4,1505.3,327.6,-0.7,1.8,2470.431,13.31,0.013,132.0
2020-07-13T02:13:03,42.805,6.029,0.064,-0.007,0.001,102.0,116.0,101.0,13.4,1505.3,326.5,-0.7,1.8,2470.419,13.32,0.064,96.2
2020-07-13T02:16:03,42.805,6.029,0.012,0.0,-0.016,101.0,112.0,102.0,13.4,1505.3,325.3,-0.7,1.8,2470.404,13.32,0.012,90.0
2020-07-13T02:19:03,42.805,6.029,0.03,-0.018,-0.015,103.0,114.0,100.0,13.4,1505.3,326.6,-0.7,1.8,2470.39,13.32,0.034,121.0
2020-07-13T02:22:03,42.805,6.029,0.039,-0.014,-0.002,101.0,115.0,100.0,13.3,1505.3,324.8,-0.7,1.8,2470.434,13.32,0.041,109.7
2020-07-13T02:25:03,42.805,6.029,0.024,-0.018,-0.022,101.0,115.0,101.0,13.4,1505.3,328.1,-0.7,1.8,2470.405,13.32,0.03,126.9
2020-07-13T02:28:03,42.805,6.029,0.039,-0.001,-0.009,102.0,115.0,100.0,13.4,1505.3,326.2,-0.7,1.9,2470.404,13.32,0.039,91.5
2020-07-13T02:31:03,42.805,6.029,0.04,-0.002,-0.007,102.0,114.0,100.0,13.4,1505.3,327.2,-0.7,1.8,2470.421,13.32,0.04,92.9
2020-07-13T02:34:03,42.805,6.029,0.003,-0.004,-0.023,105.0,117.0,99.0,13.3,1505.3,326.2,-0.7,1.8,2470.413,13.32,0.005,143.1
2020-07-13T02:37:03,42.805,6.029,0.007,-0.03,-0.075,103.0,113.0,101.0,13.3,1505.3,324.5,-0.7,1.8,2470.429,13.32,0.03,166.9
2020-07-13T02:40:03,42.805,6.029,0.018,-0.007,-0.022,102.0,117.0,101.0,13.4,1505.3,323.5,-0.7,1.8,2470.406,13.32,0.019,111.2
2020-07-13T02:43:03,42.805,6.029,0.045,-0.004,-0.005,103.0,116.0,100.0,13.4,1505.3,324.8,-0.7,1.8,2470.453,13.32,0.045,95.1
2020-07-13T02:46:03,42.805,6.029,0.032,-0.007,-0.011,102.0,115.0,100.0,13.3,1505.3,326.0,-0.7,1.8,2470.407,13.32,0.032,102.3
2020-07-13T02:49:03,42.805,6.029,0.022,0.004,-0.019,102.0,118.0,100.0,13.4,1505.3,326.3,-0.7,1.8,2470.375,13.32,0.022,79.7
2020-07-13T02:52:03,42.805,6.029,0.016,-0.006,-0.027,103.0,111.0,100.0,13.4,1505.3,324.2,-0.7,1.8,2470.384,13.32,0.017,110.6
2020-07-13T02:55:03,42.805,6.029,0.021,-0.022,-0.009,104.0,113.0,100.0,13.4,1505.3,326.1,-0.7,1.9,2470.372,13.32,0.03,136.3
2020-07-13T02:58:03,42.805,6.029,0.015,0.007,-0.012,101.0,114.0,101.0,13.4,1505.3,324.5,-0.7,1.8,2470.397,13.32,0.016,65.0
2020-07-13T03:04:03,42.805,6.029,0.042,-0.003,-0.004,102.0,116.0,100.0,13.4,1505.2,325.2,-0.7,1.8,2470.385,13.3,0.042,94.1
2020-07-13T03:07:03,42.805,6.029,0.029,0.003,0.012,102.0,116.0,101.0,13.3,1505.3,325.7,-0.7,1.8,2470.415,13.31,0.029,84.1
2020-07-13T03:10:03,42.805,6.029,0.031,0.001,-0.008,102.0,113.0,100.0,13.3,1505.3,324.2,-0.7,1.8,2470.401,13.31,0.031,88.2
2020-07-13T03:13:03,42.805,6.029,0.012,-0.001,-0.007,103.0,116.0,100.0,13.4,1505.3,325.9,-0.7,1.8,2470.386,13.32,0.012,94.8
2020-07-13T03:16:03,42.805,6.029,0.031,-0.007,-0.013,103.0,116.0,100.0,13.4,1505.3,326.5,-0.7,1.9,2470.385,13.32,0.031,102.7
2020-07-13T03:19:03,42.805,6.029,0.039,-0.021,-0.012,102.0,114.0,101.0,13.4,1505.3,327.5,-0.7,1.8,2470.416,13.32,0.044,118.3
2020-07-13T03:22:03,42.805,6.029,0.033,0.005,-0.014,102.0,119.0,101.0,13.4,1505.3,324.0,-0.7,1.8,2470.414,13.32,0.033,81.4
2020-07-13T03:25:03,42.805,6.029,0.024,-0.004,0.003,102.0,113.0,100.0,13.4,1505.3,324.1,-0.7,1.9,2470.406,13.32,0.024,99.5
2020-07-13T03:28:03,42.805,6.029,0.054,-0.002,0.01,103.0,115.0,100.0,13.4,1505.3,328.1,-0.7,1.8,2470.397,13.32,0.054,92.1
2020-07-13T03:31:03,42.805,6.029,0.048,-0.012,0.001,102.0,113.0,100.0,13.4,1505.3,326.7,-0.7,1.8,2470.388,13.32,0.049,104.0
2020-07-13T03:34:03,42.805,6.029,0.038,0.003,-0.008,103.0,114.0,101.0,13.3,1505.3,324.6,-0.7,1.8,2470.363,13.32,0.038,85.5
2020-07-13T03:37:03,42.805,6.029,0.035,0.003,0.005,102.0,114.0,100.0,13.3,1505.3,327.5,-0.7,1.8,2470.41,13.32,0.035,85.1
2020-07-13T03:40:03,42.805,6.029,0.045,0.021,-0.011,103.0,112.0,100.0,13.4,1505.3,327.3,-0.7,1.8,2470.367,13.32,0.049,65.0
2020-07-13T03:43:03,42.805,6.029,0.027,0.006,-0.026,103.0,112.0,100.0,13.4,1505.3,323.1,-0.7,1.8,2470.373,13.32,0.027,77.5
2020-07-13T03:46:03,42.805,6.029,0.045,0.0,0.003,103.0,114.0,100.0,13.4,1505.3,325.5,-0.7,1.8,2470.336,13.32,0.045,90.0
2020-07-13T03:49:03,42.805,6.029,0.051,0.008,0.001,104.0,114.0,100.0,13.4,1505.3,326.8,-0.7,1.8,2470.345,13.32,0.051,81.1
2020-07-13T03:52:03,42.805,6.029,0.005,0.007,-0.022,103.0,116.0,100.0,13.4,1505.3,323.1,-0.7,1.8,2470.406,13.32,0.008,35.5
2020-07-13T03:55:03,42.805,6.029,0.025,-0.004,-0.013,103.0,110.0,101.0,13.4,1505.3,327.6,-0.7,1.8,2470.373,13.32,0.025,99.1
2020-07-13T03:58:03,42.805,6.029,0.033,-0.009,-0.025,102.0,115.0,101.0,13.4,1505.3,324.2,-0.7,1.8,2470.385,13.32,0.034,105.3
2020-07-13T04:04:03,42.805,6.029,0.065,-0.017,-0.017,103.0,116.0,100.0,13.4,1505.2,327.7,-0.7,1.8,2470.372,13.3,0.067,104.7
2020-07-13T04:07:03,42.805,6.029,0.047,-0.014,-0.004,102.0,113.0,101.0,13.4,1505.3,323.5,-0.7,1.8,2470.431,13.31,0.049,106.6
2020-07-13T04:10:03,42.805,6.029,0.032,0.005,-0.007,102.0,114.0,101.0,13.4,1505.3,324.8,-0.7,1.8,2470.412,13.31,0.032,81.1
2020-07-13T04:13:03,42.805,6.029,0.013,-0.014,-0.056,102.0,112.0,100.0,13.4,1505.3,327.4,-0.7,1.8,2470.422,13.32,0.019,137.1
2020-07-13T04:16:03,42.805,6.029,0.037,0.008,0.001,102.0,113.0,101.0,13.4,1505.3,326.4,-0.7,1.9,2470.387,13.32,0.037,77.8
2020-07-13T04:19:03,42.805,6.029,0.02,0.004,0.019,103.0,113.0,101.0,13.4,1505.3,326.0,-0.7,1.8,2470.352,13.32,0.02,78.7
2020-07-13T04:22:03,42.805,6.029,0.044,-0.014,0.017,102.0,115.0,101.0,13.4,1505.3,328.2,-0.7,1.8,2470.375,13.32,0.046,107.6
2020-07-13T04:25:03,42.805,6.029,0.057,-0.009,0.019,103.0,113.0,100.0,13.4,1505.3,326.1,-0.7,1.8,2470.354,13.32,0.057,99.0
2020-07-13T04:28:03,42.805,6.029,0.046,-0.022,-0.012,103.0,110.0,102.0,13.4,1505.3,326.8,-0.7,1.8,2470.362,13.32,0.05,115.6
2020-07-13T04:31:03,42.805,6.029,0.053,-0.025,0.018,101.0,113.0,101.0,13.4,1505.3,327.5,-0.7,1.8,2470.377,13.32,0.058,115.3
2020-07-13T04:34:03,42.805,6.029,0.052,-0.005,0.002,103.0,112.0,99.0,13.3,1505.3,328.4,-0.7,1.8,2470.37,13.32,0.052,95.5
2020-07-13T04:37:03,42.805,6.029,0.04,0.001,-0.007,103.0,113.0,101.0,13.4,1505.3,323.7,-0.7,1.8,2470.36,13.32,0.04,88.6
2020-07-13T04:40:03,42.805,6.029,0.057,-0.008,0.002,102.0,115.0,101.0,13.4,1505.3,324.2,-0.7,1.8,2470.369,13.32,0.057,98.0
2020-07-13T04:43:03,42.805,6.029,0.029,-0.005,-0.026,103.0,113.0,101.0,13.3,1505.3,323.2,-0.7,1.8,2470.343,13.32,0.029,99.8
2020-07-13T04:46:03,42.805,6.029,0.007,0.002,-0.011,102.0,114.0,100.0,13.4,1505.3,328.1,-0.7,1.8,2470.365,13.32,0.007,74.1
2020-07-13T04:49:03,42.805,6.029,0.008,0.013,-0.02,104.0,113.0,100.0,13.3,1505.3,326.5,-0.7,1.8,2470.356,13.32,0.015,31.6
2020-07-13T04:52:03,42.805,6.029,0.038,-0.007,-0.005,104.0,115.0,101.0,13.4,1505.3,323.3,-0.7,1.8,2470.356,13.32,0.038,100.4
2020-07-13T04:55:03,42.805,6.029,0.038,-0.004,-0.032,103.0,114.0,101.0,13.4,1505.3,327.1,-0.7,1.8,2470.365,13.32,0.038,96.0
2020-07-13T04:58:03,42.805,6.029,0.032,0.0,-0.003,103.0,114.0,101.0,13.3,1505.3,325.6,-0.7,1.8,2470.353,13.32,0.032,90.0
2020-07-13T05:04:03,42.805,6.029,0.023,-0.008,-0.026,103.0,111.0,101.0,13.3,1505.2,325.2,-0.7,1.8,2470.387,13.3,0.024,109.2
2020-07-13T05:07:03,42.805,6.029,0.037,0.007,0.02,103.0,113.0,101.0,13.4,1505.3,326.2,-0.7,1.9,2470.383,13.31,0.037,79.3
2020-07-13T05:10:03,42.805,6.029,0.028,-0.01,0.033,102.0,113.0,101.0,13.4,1505.3,325.2,-0.7,1.9,2470.395,13.31,0.029,109.6
2020-07-13T05:13:03,42.805,6.029,0.052,0.005,0.024,103.0,113.0,101.0,13.4,1505.3,324.5,-0.7,1.9,2470.334,13.32,0.052,84.5
2020-07-13T05:16:03,42.805,6.029,0.035,-0.01,-0.02,102.0,113.0,100.0,13.3,1505.3,324.6,-0.7,1.8,2470.335,13.32,0.036,105.9
2020-07-13T05:19:03,42.805,6.029,0.035,-0.001,0.014,102.0,113.0,101.0,13.4,1505.3,323.2,-0.7,1.8,2470.358,13.32,0.035,91.6
2020-07-13T05:22:03,42.805,6.029,0.033,-0.017,-0.006,104.0,109.0,101.0,13.4,1505.3,326.1,-0.7,1.8,2470.395,13.32,0.037,117.3
2020-07-13T05:25:03,42.805,6.029,0.029,0.0,-0.006,103.0,113.0,99.0,13.4,1505.3,323.6,-0.7,1.8,2470.349,13.32,0.028,90.0
2020-07-13T05:28:03,42.805,6.029,0.018,0.009,0.005,103.0,113.0,100.0,13.3,1505.3,324.8,-0.7,1.8,2470.371,13.32,0.02,63.4
2020-07-13T05:31:03,42.805,6.029,0.021,-0.009,-0.015,103.0,115.0,101.0,13.4,1505.3,325.3,-0.7,1.8,2470.337,13.32,0.022,113.2
2020-07-13T05:34:03,42.805,6.029,0.042,-0.009,0.018,102.0,114.0,100.0,13.4,1505.3,323.7,-0.7,1.9,2470.323,13.32,0.042,102.1
2020-07-13T05:37:03,42.805,6.029,0.042,-0.011,0.0,103.0,113.0,101.0,13.4,1505.3,325.9,-0.7,1.8,2470.36,13.32,0.043,104.7
2020-07-13T05:40:03,42.805,6.029,0.043,0.0,0.011,104.0,115.0,100.0,13.4,1505.3,324.9,-0.7,1.8,2470.304,13.32,0.043,90.0
2020-07-13T05:43:03,42.805,6.029,0.03,0.0,0.032,101.0,113.0,101.0,13.4,1505.3,324.8,-0.7,1.8,2470.385,13.32,0.03,90.0
2020-07-13T05:46:03,42.805,6.029,0.027,0.003,-0.026,102.0,112.0,101.0,13.4,1505.3,328.2,-0.7,1.8,2470.35,13.32,0.027,83.7
2020-07-13T05:49:03,42.805,6.029,0.023,-0.023,0.0,103.0,113.0,100.0,13.4,1505.3,327.7,-0.7,1.8,2470.357,13.32,0.032,135.0
2020-07-13T05:52:03,42.805,6.029,0.012,0.009,0.0,103.0,111.0,100.0,13.4,1505.3,326.9,-0.7,1.8,2470.313,13.32,0.015,53.1
2020-07-13T05:55:03,42.805,6.029,0.03,0.001,-0.004,102.0,113.0,101.0,13.3,1505.3,326.9,-0.7,1.8,2470.346,13.32,0.03,88.1
2020-07-13T05:58:03,42.805,6.029,0.037,-0.015,-0.023,103.0,112.0,100.0,13.4,1505.3,324.5,-0.7,1.8,2470.34,13.32,0.039,112.1
2020-07-13T06:04:03,42.805,6.029,0.016,-0.014,-0.041,102.0,110.0,101.0,13.4,1505.2,325.1,-0.7,1.8,2470.334,13.3,0.021,131.2
2020-07-13T06:07:03,42.805,6.029,0.021,-0.011,0.006,103.0,111.0,101.0,13.4,1505.3,327.2,-0.7,1.8,2470.331,13.31,0.023,117.6
2020-07-13T06:10:03,42.805,6.029,0.044,0.0,-0.003,104.0,110.0,101.0,13.4,1505.3,326.9,-0.7,1.8,2470.305,13.31,0.044,90.0
2020-07-13T06:13:03,42.805,6.029,0.022,-0.003,-0.028,102.0,112.0,100.0,13.4,1505.3,323.1,-0.7,1.8,2470.332,13.32,0.022,97.8
2020-07-13T06:16:03,42.805,6.029,0.051,-0.009,-0.023,102.0,112.0,101.0,13.4,1505.3,325.2,-0.7,1.8,2470.355,13.32,0.051,100.0
2020-07-13T06:19:03,42.805,6.029,0.028,-0.014,0.015,103.0,112.0,101.0,13.3,1505.3,326.7,-0.7,1.8,2470.351,13.32,0.031,116.6
2020-07-13T06:22:03,42.805,6.029,0.054,-0.002,0.014,102.0,109.0,100.0,13.4,1505.3,325.4,-0.7,1.8,2470.335,13.32,0.054,92.1
2020-07-13T06:25:03,42.805,6.029,0.045,-0.013,0.018,102.0,109.0,101.0,13.4,1505.3,325.7,-0.8,1.9,2470.347,13.32,0.046,106.1
2020-07-13T06:28:03,42.805,6.029,0.022,0.006,-0.03,102.0,114.0,100.0,13.4,1505.3,326.9,-0.7,1.8,2470.314,13.32,0.022,74.7
2020-07-13T06:31:03,42.805,6.029,0.011,0.006,-0.023,103.0,113.0,101.0,13.4,1505.3,327.2,-0.7,1.8,2470.368,13.32,0.012,61.4
2020-07-13T06:34:03,42.805,6.029,0.017,-0.002,-0.003,103.0,113.0,100.0,13.4,1505.3,326.9,-0.7,1.8,2470.324,13.32,0.017,96.7
2020-07-13T06:37:03,42.805,6.029,0.035,-0.012,-0.004,103.0,112.0,100.0,13.4,1505.3,325.1,-0.7,1.8,2470.335,13.32,0.037,108.9
2020-07-13T06:40:03,42.805,6.029,0.027,0.016,0.023,104.0,114.0,100.0,13.4,1505.3,325.1,-0.7,1.8,2470.368,13.32,0.031,59.3
2020-07-13T06:43:03,42.805,6.029,0.021,0.0,0.009,102.0,114.0,101.0,13.4,1505.3,325.9,-0.7,1.8,2470.328,13.32,0.021,90.0
2020-07-13T06:46:03,42.805,6.029,0.031,-0.01,0.011,103.0,110.0,100.0,13.4,1505.3,326.5,-0.7,1.9,2470.275,13.32,0.032,107.9
2020-07-13T06:49:03,42.805,6.029,0.037,-0.01,-0.022,103.0,111.0,100.0,13.4,1505.3,327.7,-0.7,1.8,2470.34,13.32,0.038,105.1
2020-07-13T06:52:03,42.805,6.029,0.047,-0.017,-0.01,104.0,111.0,100.0,13.3,1505.3,323.1,-0.7,1.8,2470.325,13.32,0.049,109.9
2020-07-13T06:55:03,42.805,6.029,0.04,0.001,0.01,103.0,115.0,100.0,13.4,1505.3,324.6,-0.7,1.8,2470.325,13.32,0.04,88.6
2020-07-13T06:58:03,42.805,6.029,0.012,-0.02,-0.036,103.0,114.0,99.0,13.4,1505.3,325.6,-0.7,1.8,2470.376,13.32,0.023,149.0
2020-07-13T07:04:03,42.805,6.029,0.051,-0.003,-0.004,102.0,111.0,101.0,13.3,1505.2,325.0,-0.7,1.8,2470.378,13.3,0.051,93.4
2020-07-13T07:07:03,42.805,6.029,0.044,0.008,-0.008,102.0,112.0,100.0,13.4,1505.3,326.0,-0.7,1.8,2470.374,13.31,0.044,79.7
2020-07-13T07:10:03,42.805,6.029,0.005,0.014,-0.039,103.0,113.0,100.0,13.4,1505.3,325.3,-0.7,1.8,2470.317,13.31,0.014,19.6
2020-07-13T07:13:03,42.805,6.029,0.037,0.004,-0.009,103.0,115.0,100.0,13.4,1505.3,323.4,-0.7,1.8,2470.374,13.32,0.037,83.8
2020-07-13T07:16:03,42.805,6.029,0.043,-0.018,-0.033,102.0,110.0,102.0,13.3,1505.3,327.6,-0.7,1.8,2470.295,13.32,0.046,112.7
2020-07-13T07:19:03,42.805,6.029,0.019,-0.008,-0.022,102.0,111.0,101.0,13.4,1505.3,325.0,-0.7,1.8,2470.311,13.32,0.02,112.8
2020-07-13T07:22:03,42.805,6.029,0.02,-0.003,-0.031,103.0,111.0,101.0,13.4,1505.3,326.6,-0.7,1.9,2470.32,13.32,0.02,98.5
2020-07-13T07:25:03,42.805,6.029,0.025,-0.001,-0.018,102.0,109.0,101.0,13.4,1505.3,324.2,-0.7,1.8,2470.264,13.32,0.025,92.3
2020-07-13T07:28:03,42.805,6.029,0.05,-0.023,0.0,104.0,110.0,101.0,13.3,1505.3,327.7,-0.7,1.8,2470.319,13.32,0.055,114.7
2020-07-13T07:31:03,42.805,6.029,0.04,-0.003,-0.023,104.0,112.0,100.0,13.4,1505.3,324.1,-0.7,1.8,2470.363,13.32,0.04,94.3
2020-07-13T07:34:03,42.805,6.029,0.037,-0.021,-0.051,103.0,112.0,100.0,13.4,1505.3,326.8,-0.7,1.8,2470.304,13.32,0.042,119.6
2020-07-13T07:37:03,42.805,6.029,0.035,-0.004,-0.006,103.0,112.0,100.0,13.4,1505.3,324.4,-0.7,1.8,2470.317,13.32,0.035,96.5
2020-07-13T07:40:03,42.805,6.029,0.045,-0.013,-0.007,102.0,112.0,101.0,13.4,1505.3,328.1,-0.7,1.8,2470.26,13.32,0.046,106.1
2020-07-13T07:43:03,42.805,6.029,0.035,-0.02,-0.022,103.0,110.0,101.0,13.3,1505.3,326.3,-0.7,1.8,2470.295,13.32,0.04,119.7
2020-07-13T07:46:03,42.805,6.029,0.032,-0.014,-0.014,103.0,112.0,101.0,13.4,1505.3,327.9,-0.7,1.8,2470.304,13.32,0.034,113.6
2020-07-13T07:49:03,42.805,6.029,0.024,-0.007,0.01,103.0,111.0,100.0,13.4,1505.3,327.0,-0.7,1.9,2470.312,13.32,0.025,106.3
2020-07-13T07:52:03,42.805,6.029,0.024,-0.013,-0.027,103.0,107.0,101.0,13.4,1505.3,327.8,-0.7,1.8,2470.289,13.32,0.027,118.4
2020-07-13T07:55:03,42.805,6.029,0.002,-0.012,-0.036,104.0,112.0,101.0,13.3,1505.3,324.2,-0.7,1.8,2470.315,13.32,0.012,170.5
2020-07-13T07:58:03,42.805,6.029,0.048,-0.013,0.009,103.0,110.0,100.0,13.3,1505.3,326.7,-0.7,1.8,2470.339,13.32,0.049,105.2
2020-07-13T08:04:03,42.805,6.029,0.019,-0.004,-0.019,103.0,111.0,100.0,13.3,1505.2,327.0,-0.7,1.9,2470.329,13.3,0.019,101.9
2020-07-13T08:07:03,42.805,6.029,0.049,-0.021,0.001,103.0,111.0,100.0,13.4,1505.3,328.1,-0.7,1.8,2470.303,13.31,0.053,113.2
2020-07-13T08:10:03,42.805,6.029,0.038,-0.005,-0.018,102.0,109.0,102.0,13.4,1505.3,327.9,-0.7,1.8,2470.334,13.31,0.038,97.5
2020-07-13T08:13:03,42.805,6.029,0.013,-0.001,-0.024,102.0,112.0,102.0,13.3,1505.3,327.5,-0.7,1.8,2470.304,13.32,0.013,94.4
2020-07-13T08:19:03,42.805,6.029,0.012,0.008,-0.009,102.0,114.0,100.0,13.3,1505.2,326.3,-0.7,1.8,2470.356,13.3,0.014,56.3
2020-07-13T08:22:03,42.805,6.029,0.02,0.006,-0.027,103.0,113.0,101.0,13.4,1505.3,326.9,-0.7,1.9,2470.35,13.31,0.02,73.3
2020-07-13T08:25:03,42.805,6.029,0.037,-0.03,-0.05,103.0,114.0,100.0,13.3,1505.3,324.9,-0.7,1.8,2470.324,13.31,0.047,129.0
2020-07-13T08:28:03,42.805,6.029,0.045,-0.008,-0.011,103.0,111.0,100.0,13.3,1505.3,328.0,-0.7,1.8,2470.302,13.32,0.045,100.1
2020-07-13T08:31:03,42.805,6.029,0.029,0.002,-0.015,102.0,113.0,101.0,13.4,1505.3,322.9,-0.7,1.8,2470.336,13.32,0.029,86.1
2020-07-13T08:34:03,42.805,6.029,0.042,-0.016,-0.008,102.0,112.0,101.0,13.3,1505.3,323.0,-0.7,1.8,2470.312,13.32,0.044,110.9
2020-07-13T08:37:03,42.805,6.029,0.026,-0.004,-0.03,102.0,111.0,101.0,13.4,1505.3,325.1,-0.7,1.8,2470.296,13.32,0.026,98.7
2020-07-13T08:40:03,42.805,6.029,0.026,0.001,-0.008,103.0,111.0,101.0,13.4,1505.3,325.7,-0.7,1.8,2470.31,13.32,0.026,87.8
2020-07-13T08:43:03,42.805,6.029,0.045,0.0,-0.025,102.0,111.0,101.0,13.4,1505.3,324.6,-0.7,1.8,2470.361,13.32,0.045,90.0
2020-07-13T08:46:03,42.805,6.029,0.021,-0.005,-0.011,104.0,114.0,100.0,13.4,1505.3,323.3,-0.7,1.8,2470.319,13.32,0.021,103.4
2020-07-13T08:49:03,42.805,6.029,0.023,0.012,0.001,103.0,112.0,100.0,13.3,1505.3,326.9,-0.7,1.9,2470.348,13.32,0.025,62.4
2020-07-13T08:52:03,42.805,6.029,0.008,0.009,-0.023,102.0,112.0,101.0,13.3,1505.3,324.1,-0.6,1.8,2470.318,13.32,0.012,41.6
2020-07-13T08:55:03,42.805,6.029,0.021,0.013,-0.025,102.0,112.0,101.0,13.4,1505.3,328.4,-0.7,1.8,2470.323,13.32,0.024,58.2
2020-07-13T08:58:03,42.805,6.029,0.02,-0.018,-0.037,101.0,114.0,101.0,13.4,1505.3,324.3,-0.7,1.8,2470.304,13.32,0.026,132.0
2020-07-13T09:04:03,42.805,6.029,0.06,0.007,0.019,103.0,113.0,100.0,13.3,1505.2,324.8,-0.7,1.8,2470.322,13.3,0.06,83.3
2020-07-13T09:07:03,42.805,6.029,0.031,-0.016,0.0,102.0,114.0,101.0,13.3,1505.3,325.0,-0.7,1.8,2470.333,13.31,0.034,117.3
2020-07-13T09:10:03,42.805,6.029,0.037,-0.002,-0.033,103.0,112.0,101.0,13.4,1505.3,327.0,-0.7,1.9,2470.322,13.31,0.037,93.1
2020-07-13T09:13:03,42.805,6.029,0.03,0.008,-0.051,102.0,110.0,101.0,13.4,1505.3,326.4,-0.7,1.9,2470.328,13.32,0.031,75.1
2020-07-13T09:16:03,42.805,6.029,0.051,-0.003,-0.019,101.0,111.0,101.0,13.4,1505.3,324.7,-0.7,1.8,2470.375,13.32,0.051,93.4
2020-07-13T09:19:03,42.805,6.029,0.033,-0.005,-0.063,102.0,110.0,102.0,13.4,1505.3,327.5,-0.7,1.8,2470.316,13.32,0.033,98.6
2020-07-13T09:22:03,42.805,6.029,0.048,0.0,-0.039,102.0,113.0,101.0,13.4,1505.3,326.8,-0.7,1.8,2470.305,13.32,0.048,90.0
2020-07-13T09:25:03,42.805,6.029,0.005,-0.01,-0.027,103.0,110.0,101.0,13.4,1505.3,326.0,-0.7,1.9,2470.316,13.32,0.011,153.4
2020-07-13T09:28:03,42.805,6.029,0.031,-0.008,-0.041,103.0,114.0,100.0,13.4,1505.3,324.4,-0.7,1.8,2470.338,13.32,0.032,104.5
2020-07-13T09:31:03,42.805,6.029,0.048,-0.005,-0.018,104.0,111.0,100.0,13.3,1505.3,327.4,-0.7,1.8,2470.362,13.32,0.048,95.9
2020-07-13T09:34:03,42.805,6.029,0.029,0.003,0.013,102.0,112.0,100.0,13.3,1505.3,325.1,-0.7,1.8,2470.327,13.32,0.029,84.1
2020-07-13T09:37:03,42.805,6.029,0.035,0.003,0.009,102.0,111.0,101.0,13.3,1505.3,324.3,-0.7,1.8,2470.32,13.32,0.035,85.1
2020-07-13T09:40:03,42.805,6.029,0.018,0.008,0.0,103.0,115.0,100.0,13.4,1505.3,326.2,-0.7,1.8,2470.321,13.32,0.019,66.0
2020-07-13T09:43:03,42.805,6.029,0.015,0.003,-0.014,104.0,114.0,100.0,13.4,1505.3,326.4,-0.7,1.8,2470.292,13.32,0.015,78.7
2020-07-13T09:46:03,42.805,6.029,0.038,-0.012,-0.022,102.0,114.0,101.0,13.3,1505.3,327.3,-0.7,1.8,2470.341,13.32,0.039,107.5
2020-07-13T09:49:03,42.805,6.029,0.037,-0.011,-0.008,103.0,112.0,101.0,13.4,1505.3,325.3,-0.7,1.8,2470.287,13.32,0.038,106.6
2020-07-13T09:52:03,42.805,6.029,0.009,0.024,-0.027,103.0,113.0,100.0,13.3,1505.3,327.4,-0.7,1.8,2470.357,13.32,0.025,20.6
2020-07-13T09:55:03,42.805,6.029,0.0,-0.021,-0.046,102.0,115.0,101.0,13.4,1505.3,325.1,-0.7,1.8,2470.333,13.32,0.021,180.0
2020-07-13T09:58:03,42.805,6.029,0.043,-0.014,-0.009,103.0,114.0,100.0,13.4,1505.3,326.9,-0.7,1.8,2470.329,13.32,0.045,108.0
2020-07-13T10:04:03,42.805,6.029,0.012,0.011,-0.007,103.0,112.0,101.0,13.4,1505.2,324.4,-0.7,1.9,2470.361,13.3,0.016,47.5
2020-07-13T10:07:03,42.805,6.029,0.033,0.004,-0.029,102.0,113.0,100.0,13.3,1505.3,324.6,-0.7,1.8,2470.368,13.31,0.033,83.1